Location: Baconfoy
(50.0867°N, 5.5339°E)
Time: 21:05:38
(UTC+00:00)

Daily predictions for brighter satellites

Satellite Brightness Start Highest point End
(mag) Time Altitude Azimuth Time Altitude Azimuth Time Altitude Azimuth
SPOT 5 3.7 20:24:07 10° SE 20:28:43 38° ENE 20:33:05 10° N
Atlas Centaur 2 4.2 20:28:47 10° SSW 20:30:45 12° S 20:32:50 10° SSE
Landsat 7 3.9 20:27:24 10° SSE 20:32:08 75° ENE 20:36:54 10° N
Cosmos 1825 Rocket 3.7 20:29:11 10° S 20:33:33 61° E 20:37:59 10° NNE
CZ-2C R/B 3.8 20:29:30 10° N 20:34:43 48° WNW 20:39:48 10° SW
Cosmos 2333 Rocket 2.8 20:30:25 10° S 20:35:34 37° ESE 20:40:46 10° NE
GEOS 3 Rocket 4.0 20:34:12 10° NE 20:39:21 44° ESE 20:44:28 10° SSW
SL-16 R/B 3.6 20:39:12 10° SW 20:44:38 45° NW 20:50:06 10° NNE
Spot 2 Rocket 3.7 20:40:40 10° SSE 20:45:46 79° WSW 20:50:55 10° NNW
Cosmos 1315 Rocket 3.5 20:41:55 10° N 20:45:51 43° ENE 20:49:47 10° SE
IGS 5A 3.6 20:43:24 10° S 20:47:33 78° WSW 20:51:45 10° NNW
ATLAS 5 CENTAUR R/B 1.5 20:48:19 10° SW 20:52:31 87° SE 20:57:17 10° NE
Cosmos 2278 Rocket 2.9 20:47:51 10° NNW 20:53:20 45° NE 20:58:45 10° SE
CARTOSAT-1 3.7 20:49:49 10° SSE 20:54:05 66° ENE 20:58:23 10° N
USA 81 4.3 20:49:38 10° SSE 20:54:44 53° E 20:59:53 10° NNE
Cosmos 1844 Rocket 3.4 20:50:08 10° NW 20:55:29 49° WSW 21:00:49 10° S
USA 267 3.6 20:51:23 10° ESE 20:57:53 67° NNE 21:04:24 10° WNW
Cosmos 1709 Rocket 4.1 20:51:51 10° S 20:58:09 83° E 21:04:34 10° N
Meteor 1-11 4.2 20:58:55 10° S 21:04:31 73° E 21:10:14 10° NNE
SPOT 1/Viking Rocket 3.8 21:01:20 10° S 21:06:28 69° WSW 21:11:39 10° NNW
Cosmos-2242 3.9 21:02:27 10° NNW 21:06:39 49° W 21:10:51 10° SSW
Cosmos 1400 Rocket 3.8 21:03:36 10° NNW 21:07:23 42° W 21:11:06 10° SSW
Cosmos 2221 3.1 21:07:31 10° N 21:11:46 46° ENE 21:15:14 14° SE
Lacrosse 5 rocket 3.3 21:10:39 10° WNW 21:14:26 30° N 21:18:01 10° ENE
Cosmos 2184 Rocket 4.5 21:08:51 11° SSE 21:14:32 46° E 21:20:30 10° NNE
Resurs 01 Rocket 3.9 21:12:53 10° SW 21:16:09 20° W 21:19:26 10° NW
SAR-Lupe-2 3.7 21:14:45 10° NNE 21:18:22 78° WNW 21:21:57 10° SSW
Terra 1.9 21:14:58 13° SSE 21:19:10 75° ENE 21:23:56 10° NNW
TSX-5 3.8 21:23:37 10° NNW 21:27:03 66° ENE 21:30:04 17° SE
NOSS 3-4 (A) 4.1 21:22:04 10° NW 21:28:53 68° NE 21:36:04 12° SE
NOSS 3-4 (C) 4.1 21:22:11 10° NW 21:29:00 68° NE 21:36:12 11° SE
Cosmos 2058 3.8 21:27:37 17° SSE 21:30:16 34° E 21:34:02 10° NNE
Cosmos 2322 Rocket 4.4 21:26:43 10° WSW 21:31:30 28° NW 21:36:21 10° NNE
NOSS 3-3 (A) 3.9 21:33:53 10° SW 21:39:47 79° SE 21:46:31 10° NE
NOSS 3-3 (C) 3.9 21:33:59 10° SW 21:39:53 78° SE 21:46:38 10° NE
Cosmos 1825 3.9 21:39:57 15° ESE 21:41:29 19° E 21:44:14 10° NE
Cosmos 2369 Rocket 4.4 21:40:28 10° N 21:44:19 19° NE 21:48:11 10° E
JB-3 4.4 21:41:49 10° NNE 21:45:36 55° E 21:48:03 20° S
Cosmos 1980 4.0 21:41:49 14° S 21:46:28 46° ESE 21:51:51 10° NE
Cosmos 1538 Rocket 4.2 21:41:45 10° SSW 21:47:07 76° WNW 21:52:27 10° NNE
Aureole 2 Rocket 4.1 21:45:07 10° N 21:47:10 18° NE 21:48:50 12° E
Meteor 2-17 Rocket 4.5 21:43:29 15° S 21:48:37 67° E 21:54:37 10° NNE
Cosmos 1076 Rocket 3.8 21:47:32 20° SSE 21:50:14 49° E 21:54:23 10° NNE
Nadezhda 3 Rocket 4.2 21:44:13 10° N 21:50:35 66° ENE 21:55:18 19° SSE
COSMOS 2455 4.3 21:46:20 10° NNW 21:51:43 32° NE 21:57:06 10° E
COSMOS 2428 2.9 21:48:08 10° SW 21:53:49 77° WNW 21:59:31 10° NNE
Cosmos 2154 Rocket 4.2 21:49:47 17° SSE 21:54:30 58° E 22:00:36 10° NNE
ATLAS 2AS CENTAUR R/B 2.9 21:49:09 10° NW 21:56:54 84° NE 22:02:39 17° SE
Cosmos 2151 4.2 21:55:43 19° SE 21:57:41 27° E 22:01:19 10° NNE
Thor Agena Rocket 4.2 21:53:52 10° NNE 21:58:39 38° E 22:01:29 21° SSE
ATLAS CENTAUR R/B 2.6 21:56:04 10° WNW 21:59:06 24° WSW 22:00:56 17° SSW
Cosmos 1869 3.7 21:55:54 10° NNW 21:59:50 57° W 22:02:34 19° S
Cosmos 2074 Rocket 4.0 21:54:31 11° S 22:00:28 85° W 22:06:44 10° N
ERS-1 Rocket 4.3 21:56:57 10° SSW 22:01:28 33° W 22:06:01 10° NNW
BREEZE-M DEB (TANK) 1.7 21:56:39 10° W 22:01:41 76° SSW 22:03:23 20° ESE
Genesis I 3.8 22:00:58 24° S 22:02:40 36° ESE 22:06:17 10° NE
Cosmos 1842 Rocket 4.3 21:59:10 10° NNW 22:03:20 46° W 22:06:35 16° SSW
Cosmos 2237 Rocket 2.3 21:59:39 14° S 22:04:27 59° ESE 22:10:03 10° NE
Cosmos 1371 Rocket 4.1 22:00:02 10° NNW 22:05:19 71° ENE 22:08:51 21° SE
Cosmos 2219 Rocket 2.8 21:59:56 10° SW 22:05:26 58° NW 22:11:00 10° NNE
SPOT 5 4.2 22:02:26 11° SSW 22:06:49 33° W 22:11:08 10° NNW
USA 215 3.2 22:00:41 10° ENE 22:07:17 76° SE 22:13:50 10° SW
Cosmos 2360 Rocket 4.4 22:03:54 10° WSW 22:08:42 27° NW 22:13:32 10° NNE
Spot 4 4.1 22:06:50 22° SE 22:09:52 61° ENE 22:14:35 10° N
Cosmos 2344 3.8 22:05:03 12° S 22:11:33 47° ESE 22:19:06 10° NE
Cosmos 158 Rocket 3.9 22:09:32 20° S 22:12:52 61° ESE 22:17:43 10° NNE
Cosmos 1151 Rocket 4.3 22:09:30 10° N 22:13:20 29° ENE 22:15:44 18° ESE
Cosmos 2112 Rocket 4.1 22:12:33 19° S 22:16:22 63° ESE 22:21:40 10° NNE
Elektron 1 4.4 22:15:08 20° SSW 22:17:15 58° SE 22:22:38 10° NE
CZ-4C R/B 4.1 22:11:21 10° NW 22:17:31 38° NNE 22:24:42 10° E
Cosmos 2333 Rocket 3.3 22:14:16 10° SW 22:19:45 46° NW 22:25:17 10° NNE
ALOS 2 3.5 22:18:57 20° SE 22:21:31 40° ENE 22:25:37 10° N
Cosmos 2327 Rocket 4.5 22:17:25 16° S 22:22:28 85° W 22:28:38 10° N
Iridium 2 3.6 22:20:08 10° N 22:23:59 88° E 22:25:48 30° S
EO 1 Del DPAF 3.3 22:24:39 10° NNE 22:28:23 57° E 22:29:55 31° SSE
Cosmos 1892 3.2 22:26:26 19° SSW 22:28:58 54° WNW 22:32:43 10° N
Cosmos 2056 Rocket 3.6 22:23:43 10° NNW 22:29:10 88° WSW 22:32:26 25° SSE
NOSS 0 Rocket 4.0 22:23:28 10° SSW 22:29:37 81° WNW 22:35:51 10° NNE
GP-B 3.9 22:26:50 10° NNE 22:31:02 39° E 22:33:05 25° SE
Cosmos 1295 Rocket 4.4 22:29:34 20° S 22:33:59 87° E 22:40:07 10° N
Cosmos 1606 3.1 22:31:56 10° N 22:35:46 53° ENE 22:37:25 30° SE
Cosmos 2278 Rocket 3.1 22:32:09 10° NW 22:37:19 37° WSW 22:40:40 19° SSW
ATLAS 5 CENTAUR R/B 4.1 22:34:01 10° W 22:37:47 26° NNW 22:42:02 10° NE
Cosmos 1408 2.8 22:37:56 26° SSW 22:39:45 64° W 22:43:19 10° N
Cosmos 2297 3.8 22:34:27 10° NNW 22:40:14 80° ENE 22:43:52 24° SE
Cosmos 1943 Rocket 3.0 22:35:28 10° NNW 22:40:57 45° NE 22:45:29 15° ESE
USA 267 3.4 22:36:39 22° SSE 22:41:01 57° SW 22:47:29 10° WNW
MOS 1-B Rocket 4.4 22:34:03 10° NNE 22:41:52 77° ESE 22:46:38 21° S
Cosmos 44 3.5 22:40:51 31° SSE 22:42:16 41° ESE 22:46:26 10° NE
Gbstr 26 Del rocket 4.4 22:44:20 18° ESE 22:44:20 18° ESE 22:46:09 10° E
Cosmos 1680 Rocket 3.7 22:39:45 14° SSW 22:44:26 72° WNW 22:49:47 10° NNE
Cosmos 371 Rocket 3.5 22:43:46 10° NNW 22:48:39 68° ENE 22:51:21 26° SE
SL-16 R/B 2.5 22:46:35 26° S 22:49:32 51° ESE 22:55:03 10° NE
APEX 3.2 22:50:30 10° NNW 22:53:09 42° NE 22:53:52 33° E
CREW DRAGON DEMO-1 DEB 2.8 22:53:16 53° S 22:53:37 58° SSE 22:56:39 10° ENE
Lacrosse 5 rocket 2.4 22:50:23 10° NW 22:54:18 43° NNE 22:58:00 10° E
Cosmos 1452 Rocket 3.8 22:50:51 10° NNW 22:56:07 62° ENE 22:59:20 23° SE
Terra 4.1 22:54:34 10° SW 22:57:28 16° W 23:00:22 10° NW
Cosmos 1515 Rocket 4.2 22:53:51 10° N 22:58:03 46° ENE 23:00:08 26° SE
IRIDIUM 114 4.4 22:59:06 28° SSE 23:01:50 70° E 23:07:02 10° N
Cosmos 1766 Rocket 3.5 23:01:32 32° S 23:03:32 82° E 23:07:58 10° NNE
Cosmos 1328 Rocket 3.4 22:59:55 10° N 23:04:15 85° E 23:06:06 34° SSE
Okean 3 Rocket 3.6 23:07:35 29° SSW 23:09:48 77° W 23:14:15 10° N
IRIDIUM 103 4.3 23:08:14 29° S 23:10:58 82° E 23:16:13 10° N
Meteor 2-3 Rocket 3.9 23:12:54 28° S 23:15:53 65° E 23:21:33 10° NNE
Cosmos 1340 2.6 23:15:33 41° S 23:16:42 70° E 23:20:29 10° NNE
Cosmos 1825 3.3 23:14:44 21° SW 23:16:44 38° WNW 23:20:19 10° N
Cosmos 2228 Rocket 3.9 23:14:39 10° N 23:19:04 43° ENE 23:21:26 24° SE
Cosmos 864 Rocket 4.5 23:16:19 27° S 23:19:58 81° E 23:26:19 10° NNE
Aureole 2 Rocket 3.4 23:18:19 10° NW 23:20:47 26° WSW 23:20:49 26° WSW
Cosmos 2218 Rocket 4.0 23:17:43 26° S 23:21:35 88° E 23:27:55 10° N
Meteor 1-26 Rocket 4.3 23:19:02 10° NNW 23:25:05 86° W 23:28:23 28° S
Cosmos 2366 rocket 4.0 23:21:57 26° S 23:25:47 90° S 23:32:12 10° N
IRIDIUM 106 4.4 23:26:31 28° SSW 23:29:18 72° W 23:34:33 10° N
Cosmos 2369 Rocket 2.4 23:23:49 10° NNW 23:29:26 69° ENE 23:33:18 20° SE
Cosmos 1743 Rocket 3.9 23:29:40 32° SSE 23:31:18 51° E 23:35:32 10° NNE
Cosmos 304 Rocket 3.8 23:27:39 10° NNW 23:32:32 82° ENE 23:35:01 29° SSE
SL-4 R/B 2.0 23:33:31 32° NW 23:33:31 32° NW 23:34:51 10° NNW
Cosmos 1933 3.9 23:30:17 10° NNW 23:34:09 46° W 23:35:34 32° SW
Cosmos 2151 4.3 23:32:17 18° SW 23:34:53 33° WNW 23:38:47 10° N
YAOGAN 11 4.1 23:33:15 33° SSE 23:35:12 83° ENE 23:39:40 10° NNW
Helios 1A 2.9 23:34:08 37° S 23:35:44 80° WSW 23:39:54 10° NNW
COSMOS 2455 2.8 23:32:10 10° NW 23:38:13 74° WSW 23:41:47 26° SSE
Cosmos 1656 Rocket 4.5 23:34:16 10° NNW 23:39:29 45° NE 23:44:30 11° SE
ATLAS 2AS CENTAUR R/B 3.9 23:41:02 10° WNW 23:47:03 27° WSW 23:50:03 20° SSW
Cosmos 2237 Rocket 3.8 23:43:49 10° WSW 23:48:53 32° NW 23:53:58 10° NNE
Cosmos 1812 3.8 23:45:56 10° N 23:49:33 36° ENE 23:51:26 22° SE
USA 215 3.9 23:43:47 10° ENE 23:50:12 58° NNW 23:56:35 10° W
Cosmos 1151 Rocket 4.2 23:47:02 10° NNW 23:50:53 32° W 23:52:34 24° SW
Cosmos 1782 2.8 23:47:48 10° NNW 23:51:46 69° W 23:53:04 39° SSW
CZ-2D R/B 4.3 23:50:51 10° NE 23:53:41 14° E 23:56:31 10° ESE
Cosmos 1408 Rocket 4.1 23:52:07 28° SW 23:54:12 52° WNW 23:58:33 10° N
